User: anonymous   Login
Location: Unspecified
(0.0000°N, 0.0000°E)
Time: 13:53:05
(UTC+00:00)
Language:

Skynet 4B - Orbit

View from above orbital plane
View from above orbital plane
View from above satellite
View from above satellite

Ground track
Ground track

The orbit data is extracted from the following two-line orbital elements,

1 19687U 88109A   17322.59336185 -.00000145 +00000-0 +00000-0 0  9993
2 19687 015.4032 003.7737 0009997 243.2263 116.6549 00.99672025086940
Epoch (UTC): 18 November 2017 14:14:26
Eccentricity: 0.0009997
inclination: 15.4032°
perigee height: 35913 km
apogee height: 35997 km
right ascension of ascending node: 3.7737°
argument of perigee: 243.2263°
revolutions per day: 0.99672025
mean anomaly at epoch: 116.6549°
orbit number at epoch: 8694

The dashed part of the orbit path shows where the satellite is in the earth's shadow,  

DLR